Temperature
23 24 25 25 26 26 24 22 22 22 22 22 21 21 21 21 20 20 20 21 21 21 21 21 21 21 20 20 20 20 20 20 20 20 19 19 18 18 18 18 18 18 18 17
22 24 24 25 25 25 25 24 23 22 22 21 21 21 21 20 20 20 20 20 20 21 21 21 21 21 20 20 20 20 20 20 19 19 19 18 18 18 18 18 18 18 17 17
20 22 23 22 23 24 24 24 23 22 21 20 20 20 20 20 20 20 20 20 20 20 21 21 20 20 20 20 20 20 19 19 19 18 18 18 18 18 17 17 18 17 17 17
18 21 22 21 22 23 23 22 22 21 20 21 20 20 20 20 20 20 20 20 20 20 20 21 20 20 20 19 19 19 19 19 19 18 18 18 18 17 17 17 17 17 17 17
17 19 20 21 22 22 21 20 20 20 20 20 20 20 19 20 20 20 20 20 20 20 20 20 20 20 19 19 19 19 18 18 18 18 18 18 18 17 17 17 17 17 16 16
17 19 20 20 21 22 21 19 19 19 19 19 19 17 17 19 20 20 20 20 20 20 20 20 20 19 19 19 18 18 18 18 18 18 18 18 18 17 17 17 17 16 16 16
17 18 18 19 20 21 19 18 18 19 19 19 18 18 19 19 19 19 19 19 19 19 19 19 19 19 19 18 18 18 18 18 18 18 17 17 17 17 17 17 16 16 16 16
15 16 17 18 18 18 17 18 18 18 19 18 19 19 19 19 19 19 18 18 19 18 18 18 18 18 18 18 18 18 18 18 17 17 17 17 17 16 16 16 16 16 15 15
15 15 16 18 17 18 18 18 18 18 18 18 18 18 18 18 18 18 18 18 18 17 17 17 17 17 17 17 17 17 17 17 17 17 17 16 16 16 16 16 15 15 15 15
14 15 16 17 18 18 18 18 18 18 17 18 18 17 17 17 17 17 17 17 17 17 17 17 16 16 16 17 17 16 16 16 16 16 16 16 16 15 15 15 15 15 15 14
14 15 16 17 17 17 18 17 17 17 17 17 17 17 17 17 17 16 16 16 16 16 16 16 16 16 16 16 16 16 16 16 15 15 15 15 15 15 15 15 15 15 14 14
14 15 14 16 17 17 17 17 17 17 16 17 16 16 16 16 16 16 16 15 15 15 15 15 15 15 15 15 15 15 15 15 15 15 15 14 14 14 14 14 14 14 14 14
16 16 16 16 16 16 16 16 16 16 16 16 16 16 16 15 15 15 15 15 15 15 15 15 15 15 15 14 14 15 15 14 14 14 14 14 14 14 14 14 13 13 13 13
16 16 15 15 15 16 16 15 15 15 15 15 15 15 15 15 15 15 15 15 14 14 14 14 14 14 14 14 14 14 14 14 14 14 14 14 13 13 13 13 13 13 13 12
15 15 15 15 15 15 15 15 15 14 14 14 14 14 14 14 14 14 14 14 14 14 14 14 14 14 14 14 13 13 14 13 13 13 13 13 13 13 13 12 12 12 12 12
15 15 15 15 14 14 14 14 14 14 14 14 13 13 13 13 13 13 13 13 13 13 13 13 13 13 13 13 13 13 13 13 13 13 13 13 13 12 12 12 12 12 11 11
14 14 14 14 14 14 14 14 13 13 13 13 13 13 13 13 13 12 12 13 13 13 13 13 13 13 13 13 13 13 13 12 12 12 12 12 12 12 12 12 11 11 11 11
14 14 14 14 13 13 13 13 13 13 13 12 12 12 12 12 12 12 12 12 12 12 12 12 12 12 13 13 12 12 12 12 12 12 12 12 11 11 11 11 11 11 11 10
14 13 13 13 13 13 13 12 12 12 12 12 12 12 12 12 11 11 11 11 11 11 12 12 12 12 12 12 12 12 12 12 11 11 11 11 11 11 11 11 11 11 10 10
13 13 13 12 12 12 12 12 12 12 11 11 11 11 11 11 11 11 11 11 11 11 11 11 11 11 11 11 11 11 11 11 11 11 11 11 11 11 11 10 10 10 10 10
12 12 12 12 12 12 12 12 11 11 11 11 11 11 11 11 11 11 11 10 10 11 11 11 11 11 11 11 11 11 11 11 11 11 11 11 11 11 10 10 10 10 10 10
12 12 12 11 11 11 11 11 11 11 11 10 10 10 10 10 10 10 10 10 10 10 10 11 11 11 11 11 11 11 11 11 11 11 11 10 10 10 10 10 10 10 10 9
11 11 11 11 11 11 11 11 11 11 10 10 10 10 10 10 10 10 10 10 10 10 10 10 10 10 11 11 11 10 10 10 10 10 10 10 10 10 10 10 9 9 9 9
11 11 11 11 11 11 11 11 11 10 10 10 10 10 10 10 10 10 10 10 10 10 10 10 10 10 10 10 10 10 10 10 10 10 10 10 10 10 10 9 9 9 9 9
11 11 11 11 11 11 11 11 10 10 10 10 10 10 10 10 10 10 10 10 10 10 10 10 10 10 10 10 10 10 10 10 10 10 10 10 9 9 9 9 9 9 8 8
11 11 11 11 11 11 11 11 10 10 10 10 10 10 10 10 10 10 10 10 10 10 10 10 10 10 10 10 10 10 10 10 10 10 10 9 9 9 9 9 9 9 8 8
11 11 11 11 11 11 10 10 10 10 10 10 10 10 10 10 10 10 10 10 10 10 10 10 10 10 10 9 9 9 10 9 9 9 9 9 9 9 9 9 9 8 8 8
Wind_Speed
3 3 1 2 4 2 2 7 7 7 7 7 8 9 9 10 10 9 8 7 7 6 5 4 4 4 4 5 5 6 6 6 7 6 5 5 5 5 5 5 5 5 5 5
4 4 5 4 5 3 0 3 6 7 3 4 7 8 9 10 11 9 8 7 7 6 5 4 4 4 4 4 5 5 6 6 5 5 5 6 5 5 5 5 5 5 5 5
2 5 5 4 4 1 2 0 6 6 6 7 8 9 9 9 9 9 7 7 6 5 5 5 4 5 5 4 4 5 5 5 6 6 6 6 6 6 7 6 5 4 4 5
1 4 1 6 3 4 6 6 3 6 6 8 10 9 8 8 9 7 6 6 5 4 4 3 3 3 3 3 4 5 4 5 5 6 6 5 6 7 7 6 6 5 5 5
3 1 2 5 5 3 4 5 5 6 7 7 7 9 6 4 6 7 5 5 4 4 4 3 3 3 3 3 3 3 4 4 5 6 7 7 8 8 6 6 6 5 5 6
3 3 3 5 8 4 7 4 6 5 6 6 5 5 1 2 4 5 4 3 3 3 2 2 2 3 3 3 3 4 5 5 5 5 6 7 7 7 6 6 6 5 4 5
3 2 3 6 8 5 5 3 3 4 4 4 3 4 4 4 4 4 4 3 3 3 2 2 2 3 3 3 4 5 4 4 4 5 5 6 5 5 4 5 5 5 5 4
3 2 4 7 5 4 4 1 3 5 5 5 5 5 5 4 4 4 3 3 3 3 1 0 1 2 2 3 4 3 3 3 4 4 4 3 4 4 4 5 5 5 4 3
4 4 3 2 4 3 4 5 5 6 5 5 5 4 4 3 3 3 2 1 2 3 2 2 2 0 2 3 2 2 2 3 3 3 2 3 4 5 5 5 5 4 4 4
3 1 3 5 5 4 6 6 5 6 6 5 4 4 3 3 2 2 1 1 1 2 2 2 3 2 1 2 2 2 2 3 3 3 3 2 3 4 4 5 5 4 4 4
2 0 3 5 4 4 6 6 6 6 6 5 4 3 3 2 1 1 1 1 1 1 1 1 2 2 3 2 1 1 2 3 3 3 3 3 2 1 3 4 6 6 5 5
3 3 2 2 0 3 5 4 4 4 4 3 3 1 2 1 1 1 1 1 1 0 1 2 2 3 3 2 1 1 1 2 3 3 3 4 4 2 3 1 3 4 6 6
3 2 2 1 3 4 3 2 2 2 2 2 1 1 2 2 1 1 1 1 1 1 2 2 2 3 3 2 1 1 2 2 2 3 3 4 4 4 2 1 2 3 4 5
3 3 3 2 1 1 2 1 2 3 3 2 1 1 2 2 2 1 1 1 1 1 1 2 2 3 4 3 2 1 1 2 2 3 3 4 4 4 4 4 2 0 1 2
2 2 1 1 1 2 2 2 3 2 3 2 2 1 1 1 0 1 1 1 1 1 2 2 2 4 4 2 2 2 1 1 1 2 2 3 3 3 3 4 3 2 1 0
1 1 1 2 2 2 2 2 1 1 1 1 1 1 1 1 0 1 1 1 1 2 3 3 3 4 3 2 2 2 1 1 1 2 2 3 3 3 3 3 3 3 2 2
2 0 0 1 2 1 1 0 1 1 1 1 1 1 0 0 1 2 2 2 2 2 3 2 3 3 2 2 2 1 1 1 1 1 2 2 3 3 3 3 3 3 2 3
3 3 2 2 1 0 1 1 1 1 1 1 1 1 1 1 1 2 2 2 2 3 3 3 3 3 3 2 2 1 1 1 1 2 2 2 3 3 3 3 3 2 1 1
2 2 2 2 1 1 1 1 1 1 0 0 0 1 1 1 1 1 1 1 2 3 4 4 4 3 2 2 1 1 1 1 1 2 2 2 2 2 3 2 2 3 3 3
2 2 2 2 1 0 1 1 1 0 0 1 1 1 1 1 1 1 1 1 2 3 3 3 2 2 2 2 1 0 1 1 2 2 2 2 3 3 3 3 3 3 3 3
2 2 2 2 1 1 0 1 1 0 1 1 1 0 1 1 1 1 0 2 3 3 2 2 1 1 1 2 1 1 1 2 2 3 3 3 3 3 3 3 3 3 3 3
1 1 1 1 1 1 1 1 1 1 0 1 1 1 1 0 1 1 1 2 2 2 1 2 1 1 2 1 1 1 2 2 2 2 2 3 3 3 3 3 3 2 2 2
1 1 1 1 2 1 1 0 1 2 1 1 1 1 2 2 1 1 2 2 1 0 1 1 2 3 3 2 1 2 2 2 2 2 2 2 3 3 3 3 3 3 3 3
1 1 2 1 1 2 0 1 1 1 1 1 1 1 2 1 1 2 2 1 0 1 1 1 3 3 3 2 2 2 2 2 2 2 3 3 3 3 3 3 3 2 3 3
1 1 1 1 1 1 1 1 0 1 1 1 2 2 1 2 2 2 1 1 1 1 1 2 3 3 2 2 2 2 1 2 2 3 3 3 3 3 3 3 3 3 3 3
2 1 1 1 2 2 2 1 1 1 1 0 1 1 0 0 1 1 1 1 1 2 1 1 1 2 2 2 1 1 1 2 2 2 3 3 2 2 2 3 3 3 3 3
1 1 1 1 1 1 1 1 1 1 1 1 1 1 0 1 2 2 1 1 1 1 1 1 1 1 1 1 1 1 2 2 2 2 2 2 2 2 2 3 3 3 3 3
Wind_Direction
207 233 263 309 311 342 159 180 177 191 177 187 171 155 146 133 127 120 120 126 130 133 137 137 148 162 179 192 190 186 186 196 204 208 206 186 181 179 183 189 195 190 177 172
4 9 30 1 339 347 279 163 151 138 166 182 150 125 122 134 135 134 137 142 142 138 139 151 157 163 171 195 193 187 192 200 201 201 199 185 183 176 176 188 188 182 178 179
318 329 34 347 313 18 17 279 149 163 186 149 126 130 140 137 134 141 149 148 149 157 165 172 176 171 175 186 181 191 200 204 203 198 195 191 188 183 189 193 189 185 187 182
63 36 206 245 290 86 76 35 68 123 132 139 139 138 129 127 134 139 145 150 161 166 167 183 184 163 160 165 175 189 199 201 199 200 201 198 191 194 198 194 191 193 192 187
109 140 268 304 338 16 91 28 22 103 109 109 112 90 73 95 125 135 137 143 159 177 175 180 180 174 161 179 185 186 204 209 202 198 199 201 203 204 197 191 195 196 189 183
127 145 213 270 313 327 90 34 352 72 101 118 101 106 178 137 112 105 97 107 131 148 141 168 203 179 165 189 195 207 215 216 208 203 206 205 206 205 199 189 192 188 183 181
145 172 260 289 317 26 95 213 328 66 85 103 121 162 172 135 107 98 88 95 113 112 126 189 188 167 181 203 222 226 217 210 208 210 208 204 200 201 193 186 182 183 181 182
135 152 254 315 22 84 168 170 66 69 81 89 100 103 110 113 109 102 89 79 95 96 65 351 152 159 192 228 238 232 211 213 219 218 213 203 187 186 181 179 182 186 183 188
157 187 237 28 89 114 120 91 74 69 64 80 91 94 100 100 100 101 99 93 95 99 52 14 4 130 216 250 249 222 210 223 227 224 215 189 177 182 183 175 187 192 190 194
71 50 58 59 66 70 81 83 77 76 74 75 94 98 91 90 75 67 49 58 89 95 63 7 347 350 299 257 225 195 213 223 212 198 195 195 184 181 182 186 188 191 195 196
75 17 44 38 44 70 75 70 62 58 71 77 79 90 109 117 113 94 23 12 90 117 134 288 311 324 317 290 219 208 239 227 210 194 180 170 162 178 186 195 193 187 197 193
203 228 177 234 42 70 69 56 53 59 55 61 75 116 103 116 148 132 110 67 58 15 291 295 311 317 318 311 267 208 249 240 213 196 174 164 158 106 38 139 156 172 184 184
164 178 138 104 48 64 76 39 25 69 89 80 41 87 99 102 64 58 81 106 229 257 279 296 314 320 318 315 318 270 249 231 197 182 174 172 171 169 163 44 86 126 154 165
99 83 51 29 24 54 63 36 58 80 84 98 79 69 83 72 63 41 338 283 265 267 286 289 299 304 305 311 306 289 241 212 198 192 184 178 181 182 174 171 172 166 139 169
55 104 170 288 346 23 36 55 71 77 87 75 63 69 76 65 46 289 283 297 331 307 293 297 301 302 309 321 326 307 252 202 195 193 171 167 168 167 167 165 170 169 127 102
107 70 70 29 356 1 36 56 82 116 109 93 104 173 193 174 253 281 297 308 305 283 282 281 276 285 306 320 324 311 263 212 180 170 165 165 162 167 175 171 173 173 178 195
135 220 257 301 306 329 6 206 235 209 152 155 199 215 238 343 343 336 330 320 299 271 276 270 269 287 300 298 286 273 236 191 160 148 156 171 173 175 171 169 178 185 196 198
170 192 188 192 214 278 351 25 30 31 153 205 202 198 237 249 276 291 301 327 355 347 330 309 298 301 297 288 270 242 203 195 186 178 171 167 168 159 147 151 162 163 153 127
87 75 70 81 122 139 153 305 324 334 299 282 262 251 253 248 235 271 334 357 349 317 309 315 316 319 314 303 303 229 197 190 178 167 156 150 146 141 144 151 153 150 149 134
70 67 61 55 47 106 202 255 301 350 325 6 13 2 353 321 287 307 351 310 279 270 280 307 334 347 334 328 355 129 136 141 138 137 130 130 135 137 141 147 146 142 141 145
92 74 49 39 29 43 161 182 164 267 314 19 53 245 236 260 248 240 284 294 301 303 309 326 343 335 334 348 359 74 107 112 118 128 129 127 125 125 126 126 128 132 134 140
140 126 96 93 82 341 297 212 189 213 269 307 293 240 202 279 322 338 290 247 265 294 328 332 322 341 9 21 61 81 93 105 114 122 124 127 129 131 130 128 125 121 119 122
171 171 176 186 194 208 256 281 222 212 210 242 265 245 229 231 215 195 275 273 248 295 346 339 347 6 22 50 68 82 87 96 109 117 124 133 137 141 138 130 131 131 128 129
215 216 208 196 139 121 116 297 270 222 208 230 250 236 199 212 282 260 222 210 147 58 33 6 20 26 37 46 54 64 77 101 115 116 115 115 123 129 134 137 140 142 142 141
175 164 145 118 120 173 199 216 287 252 234 253 278 271 225 193 199 232 216 186 155 103 55 16 27 43 56 56 60 60 74 111 122 121 115 116 125 134 140 144 152 154 152 151
142 149 164 157 165 170 170 151 163 228 187 207 283 281 249 186 153 135 131 143 135 118 111 74 66 69 70 74 75 76 93 106 97 105 121 128 131 142 152 158 157 158 160 161
96 95 91 54 31 164 149 135 151 189 177 161 176 249 127 109 109 110 113 114 113 104 94 83 85 96 87 83 82 85 92 97 103 112 119 127 143 158 165 161 160 161 159 156
Height
1478 1474 1472 1473 1473 1472 1479 1486 1496 1494 1493 1489 1485 1485 1487 1488 1491 1494 1496 1498 1499 1501 1503 1505 1507 1509 1510 1511 1513 1513 1514 1515 1515 1515 1516 1516 1516 1517 1519 1520 1521 1522 1522 1522
1479 1472 1472 1474 1471 1470 1473 1475 1481 1484 1489 1482 1482 1484 1486 1488 1490 1493 1496 1497 1499 1500 1502 1503 1505 1507 1508 1509 1510 1511 1511 1511 1511 1512 1513 1513 1513 1514 1516 1517 1517 1518 1518 1519
1491 1479 1477 1488 1477 1473 1474 1472 1475 1485 1484 1480 1483 1484 1486 1488 1490 1492 1494 1496 1498 1499 1501 1502 1504 1504 1505 1507 1508 1509 1509 1509 1508 1509 1509 1510 1511 1511 1513 1514 1514 1514 1515 1516
1495 1490 1500 1490 1472 1469 1473 1475 1473 1475 1477 1478 1479 1483 1486 1487 1489 1492 1494 1496 1497 1498 1499 1501 1502 1502 1503 1504 1506 1506 1506 1506 1506 1506 1507 1507 1508 1508 1509 1510 1511 1511 1512 1512
1500 1501 1496 1483 1474 1473 1477 1484 1478 1477 1478 1481 1481 1483 1487 1489 1489 1490 1492 1493 1495 1496 1497 1498 1499 1499 1500 1501 1502 1503 1503 1503 1503 1503 1504 1504 1504 1505 1506 1507 1507 1507 1508 1509
1497 1499 1502 1490 1475 1471 1474 1490 1482 1480 1480 1481 1482 1489 1491 1489 1490 1490 1491 1492 1494 1495 1496 1496 1496 1497 1497 1497 1498 1499 1499 1499 1500 1500 1500 1500 1501 1501 1502 1503 1503 1504 1504 1504
1497 1500 1496 1483 1475 1472 1490 1495 1485 1481 1482 1482 1483 1485 1488 1488 1489 1490 1491 1492 1492 1493 1493 1494 1494 1494 1494 1494 1494 1495 1495 1496 1496 1496 1496 1497 1497 1498 1498 1499 1500 1500 1500 1500
1498 1503 1501 1482 1478 1483 1488 1485 1484 1483 1483 1483 1484 1485 1486 1487 1488 1489 1489 1490 1490 1490 1491 1492 1492 1491 1491 1490 1490 1491 1491 1491 1491 1491 1492 1492 1492 1493 1494 1494 1495 1496 1497 1497
1492 1496 1488 1483 1483 1484 1484 1484 1484 1484 1485 1485 1486 1487 1487 1487 1488 1488 1488 1489 1489 1489 1489 1489 1489 1488 1487 1487 1487 1487 1487 1487 1487 1487 1487 1488 1487 1487 1488 1489 1491 1492 1493 1493
1489 1488 1485 1485 1485 1485 1485 1485 1486 1486 1485 1485 1487 1487 1488 1487 1487 1487 1488 1488 1488 1487 1487 1486 1486 1486 1485 1484 1484 1484 1483 1483 1483 1483 1483 1483 1484 1484 1484 1485 1487 1488 1489 1490
1490 1488 1486 1486 1487 1487 1486 1486 1485 1485 1485 1486 1486 1486 1487 1486 1487 1487 1487 1487 1486 1485 1485 1484 1484 1483 1483 1481 1480 1479 1479 1479 1478 1479 1479 1479 1479 1479 1480 1482 1483 1484 1485 1486
1492 1488 1488 1488 1487 1487 1487 1486 1485 1485 1485 1485 1486 1486 1485 1486 1486 1486 1486 1485 1484 1484 1483 1482 1481 1480 1479 1478 1477 1475 1474 1474 1474 1475 1475 1475 1475 1476 1477 1478 1479 1480 1480 1481
1486 1487 1487 1487 1486 1487 1487 1486 1485 1484 1484 1484 1484 1485 1484 1484 1484 1484 1484 1483 1483 1482 1481 1480 1478 1477 1476 1475 1473 1472 1471 1471 1471 1471 1471 1472 1472 1473 1473 1474 1475 1476 1476 1477
1485 1485 1486 1485 1485 1485 1485 1485 1484 1483 1483 1483 1482 1483 1483 1482 1482 1482 1482 1481 1481 1479 1479 1478 1476 1474 1473 1472 1470 1469 1468 1468 1468 1468 1468 1468 1469 1470 1470 1470 1471 1472 1472 1473
1483 1484 1485 1484 1484 1483 1483 1483 1482 1481 1481 1481 1481 1481 1481 1481 1480 1480 1480 1479 1478 1477 1476 1475 1473 1471 1470 1469 1468 1466 1466 1465 1465 1465 1465 1465 1466 1466 1467 1467 1468 1469 1469 1469
1482 1482 1482 1482 1482 1482 1481 1481 1480 1479 1479 1479 1479 1479 1479 1478 1478 1477 1477 1476 1475 1473 1473 1471 1470 1468 1467 1466 1465 1464 1463 1463 1463 1462 1463 1463 1463 1464 1464 1464 1465 1466 1467 1467
1480 1480 1480 1480 1480 1480 1479 1479 1478 1477 1476 1476 1477 1477 1476 1476 1475 1474 1474 1473 1472 1471 1470 1468 1467 1465 1464 1464 1463 1462 1461 1461 1461 1460 1461 1461 1461 1462 1462 1462 1463 1465 1466 1466
1479 1478 1478 1478 1477 1477 1477 1476 1475 1474 1473 1473 1473 1473 1472 1471 1471 1471 1471 1470 1469 1468 1467 1465 1464 1463 1462 1461 1460 1460 1459 1459 1458 1458 1459 1459 1459 1460 1460 1461 1462 1463 1464 1465
1476 1476 1476 1476 1476 1475 1474 1473 1472 1471 1471 1471 1470 1469 1468 1468 1468 1468 1468 1467 1466 1464 1463 1462 1461 1460 1459 1459 1458 1458 1457 1457 1457 1457 1457 1457 1458 1458 1459 1460 1461 1461 1462 1463
1475 1474 1474 1474 1473 1473 1472 1471 1470 1469 1469 1468 1467 1466 1465 1464 1464 1465 1465 1464 1463 1462 1461 1460 1459 1458 1457 1456 1456 1456 1456 1456 1456 1456 1456 1456 1457 1457 1458 1459 1460 1461 1461 1461
1473 1472 1472 1471 1471 1470 1470 1469 1468 1467 1466 1466 1465 1464 1463 1463 1463 1463 1462 1461 1460 1460 1459 1458 1457 1456 1456 1456 1455 1455 1455 1455 1455 1455 1456 1456 1457 1457 1458 1459 1460 1460 1461 1461
1471 1470 1470 1470 1469 1468 1468 1467 1466 1465 1464 1463 1463 1462 1462 1461 1461 1460 1460 1459 1459 1459 1458 1457 1456 1456 1455 1455 1455 1455 1455 1455 1455 1456 1456 1456 1456 1457 1458 1459 1459 1460 1460 1460
1469 1468 1468 1468 1467 1466 1466 1465 1464 1463 1463 1462 1462 1461 1460 1460 1459 1459 1458 1458 1458 1458 1457 1457 1456 1455 1455 1455 1454 1454 1454 1455 1455 1456 1456 1456 1457 1457 1458 1459 1459 1459 1459 1459
1467 1467 1466 1466 1465 1465 1464 1464 1463 1463 1462 1462 1461 1460 1459 1459 1458 1458 1458 1458 1458 1458 1457 1457 1456 1456 1455 1455 1454 1454 1455 1455 1456 1456 1456 1456 1457 1458 1458 1459 1459 1459 1459 1459
1466 1466 1465 1465 1465 1464 1464 1464 1463 1462 1461 1460 1460 1460 1459 1459 1458 1458 1458 1458 1458 1458 1458 1457 1457 1457 1456 1456 1456 1456 1456 1456 1457 1457 1457 1457 1457 1458 1458 1459 1459 1459 1459 1458
1465 1465 1465 1465 1464 1464 1464 1463 1462 1462 1461 1460 1459 1459 1459 1459 1458 1458 1459 1459 1459 1459 1459 1459 1458 1458 1458 1457 1457 1457 1457 1458 1458 1458 1458 1458 1458 1458 1458 1458 1458 1458 1458 1458
1465 1465 1465 1465 1464 1463 1463 1462 1462 1461 1461 1460 1460 1460 1460 1460 1460 1460 1460 1460 1460 1461 1460 1460 1460 1460 1459 1459 1458 1459 1459 1459 1459 1459 1459 1459 1459 1459 1459 1458 1458 1458 1458 1457